ECHOSTAR 19 (41893 NORAD) Tracking and Keplerian Element Data

This shows tracking and keplerian element data for the satellite.

Feedback or suggestion? Click here.




ElementValue
Catalog41893
NameECHOSTAR 19
Epoch Orbit2110
Epoch Day270.00813154
Epoch Year2022
RAAN173.5786
Inclination0.0192
Eccentricity0.0001596
Argument of Perigee8.4013
Mean Anonmoly89.6459
Mean Motion1.00272611
Decay Rate-1.35E-06
L11 41893U 16079A 22270.00813154 -.00000135 00000+0 00000+0 0 9991
L22 41893 0.0192 173.5786 0001596 8.4013 89.6459 1.00272611 21108

Live tracking and technical data element details for ECHOSTAR 19 (NORAD 41893). ECHOSTAR 19 can be tracked NOW for your location showing map with azimuth and elevation plus other details from your city location.

Track the satellite on the map from your city or location and see movement details for azimuth, elevation, latitude, longitude, range, height, and movement on the map or in text.







IsCatalogInMostPopularTable: catalog: 41893, numindb: 720
Update: records affected: 1



GetName: 41893 ECHOSTAR 19

Hit Count: updated at: Wed, 28 Sep 2022 22:08:47 GMT